This demonstration page uses our WeatherBlox Daily Observations layout. Learn more.

Left ArrowRight Arrow

Hourly Observations for December 1, 2020

Temp ( °F °C ) Dew Point ( °F °C ) Humidity (%) Winds ( mph kmh ) Pressure ( in mb ) Visibility ( mi km ) Precip ( " mm )
12:52 am 00:52 Clear 25 -3.9 15 -9.4 66 66 S 8 13 30.10 1019 10 16 0.00 0.00
1:52 am 01:52 Clear 25 -3.9 16 -8.9 69 69 S 5 7 30.08 1019 10 16 0.00 0.00
2:52 am 02:52 Clear 22 -5.6 14 -10 71 71 S 3 6 30.09 1019 10 16 0.00 0.00
3:52 am 03:52 Clear 22 -5.6 13 -10.6 68 68 Calm 30.07 1018 10 16 0.00 0.00
4:52 am 04:52 Clear 22 -5.6 14 -10 71 71 SSW 3 6 30.07 1018 10 16 0.00 0.00
5:52 am 05:52 Clear 21 -6.1 14 -10 74 74 SSE 5 7 30.06 1018 10 16 0.00 0.00
6:52 am 06:52 Clear 21 -6.1 14 -10 74 74 SSE 6 9 30.07 1018 10 16 0.00 0.00
7:52 am 07:52 Sunny 22 -5.6 15 -9.4 75 75 SSE 10 17 30.07 1018 10 16 0.00 0.00
8:52 am 08:52 Sunny 27 -2.8 17 -8.3 66 66 SSE 10 17 30.07 1018 10 16 0.00 0.00
9:52 am 09:52 Sunny 32 0 18 -7.8 56 56 SSE 14 22 30.08 1019 10 16 0.00 0.00
10:52 am 10:52 Sunny 37 2.8 19 -7.2 48 48 SSE 13 20 30.09 1019 10 16 0.00 0.00
11:52 am 11:52 Sunny 41 5 20 -6.7 43 43 SE 13 20 30.06 1018 10 16 0.00 0.00
12:52 pm 12:52 Mostly Sunny 45 7.2 20 -6.7 37 37 SE 15 24 30.03 1017 10 16 0.00 0.00
1:52 pm 13:52 Partly Cloudy 48 8.9 18 -7.8 30 30 SE 15 24 30.02 1017 10 16 0.00 0.00
2:52 pm 14:52 Partly Cloudy 48 8.9 17 -8.3 29 29 SSE 15 24 30.02 1017 10 16 0.00 0.00
3:52 pm 15:52 Mostly Cloudy 46 7.8 17 -8.3 31 31 SE 12 19 30.04 1017 10 16 0.00 0.00
4:52 pm 16:52 Mostly Cloudy 40 4.4 17 -8.3 40 40 SE 9 15 30.06 1018 10 16 0.00 0.00
5:52 pm 17:52 Mostly Cloudy 37 2.8 16 -8.9 42 42 SE 5 7 30.09 1019 10 16 0.00 0.00
6:52 pm 18:52 Mostly Cloudy 36 2.2 16 -8.9 44 44 SE 7 11 30.12 1020 10 16 0.00 0.00
7:52 pm 19:52 Mostly Cloudy 38 3.3 15 -9.4 39 39 SE 3 6 30.14 1021 10 16 0.00 0.00
8:52 pm 20:52 Mostly Cloudy 33 0.6 16 -8.9 49 49 SSE 6 9 30.16 1022 10 16 0.00 0.00
9:52 pm 21:52 Mostly Cloudy 33 0.6 17 -8.3 52 52 SE 5 7 30.17 1022 10 16 0.00 0.00
10:52 pm 22:52 Mostly Cloudy 33 0.6 17 -8.3 52 52 E 6 9 30.20 1023 10 16 0.00 0.00
11:52 pm 23:52 Cloudy 32 0 17 -8.3 54 54 ESE 7 11 30.22 1023 10 16 0.00 0.00

Powered by AerisWeather